Location: Hains Lake
(37.8540°N, 99.8578°W)
Time: 19:34:18
(UTC+00:00)

ISS - Pass Details

Date: 07 March 2021
Orbit: 418 x 422 km, 51.6° (Epoch: 16 April)

Event Time Altitude Azimuth Distance (km) Brightness Sun altitude
Exits shadow 11:40:11 - 338° (NNW) 1,654 -0.9 -17.0°
Reaches altitude 10° 11:40:49 10° 346° (NNW) 1,498 -1.0 -16.8°
Maximum altitude 11:42:43 14° 21° (NNE) 1,267 -1.0 -16.5°
Drops below altitude 10° 11:44:38 10° 56° (NE) 1,497 0.0 -16.1°
Sets 11:47:29 0° 82° (E) 2,359 2.0 -15.5°
